Waarnemingen

Advertentie
Mijn weer
Skillinge, Zweden (2625): temperatuur & dauwpunt: 13.08.2019 22:00:00 - 19.08.2019 22:00:00 (CEST)Skillinge, Zweden (2625): windsnelheid & windstoten: 13.08.2019 22:00:00 - 19.08.2019 22:00:00 (CEST)Skillinge, Zweden (2625): windrichting: 13.08.2019 22:00:00 - 19.08.2019 22:00:00 (CEST)Skillinge, Zweden (2625): luchtdruk: 13.08.2019 22:00:00 - 19.08.2019 22:00:00 (CEST)Skillinge, Zweden (2625): zicht: 13.08.2019 22:00:00 - 19.08.2019 22:00:00 (CEST)Skillinge, Zweden (2625): neerslag: 13.08.2019 22:00:00 - 19.08.2019 22:00:00 (CEST)
Datum & Tijd tt [°C] td [°C] ff [km/u] ff [kn] fx [km/u] fx [kn] dd ppp [hPa] vv [km] rr [mm]
19.08.2019 22:00:00 14,8 13,0 6 4 12 7 WZW 1016,3 21 0,0
19.08.2019 21:00:00 16,4 13,3 9 5 24 13 WZW 1015,7 25 0,0
19.08.2019 20:00:00 18,0 14,3 16 9 35 19 WZW 1015,1 26 0,0
19.08.2019 19:00:00 19,2 14,0 21 11 38 20 WZW 1014,7 26 0,0
19.08.2019 18:00:00 19,9 14,3 23 12 39 21 WZW 1014,3 27 0,0
19.08.2019 17:00:00 20,1 14,5 25 13 41 22 WZW 1013,9 28 0,0
19.08.2019 16:00:00 20,2 14,6 26 14 41 22 ZW 1013,7 29 0,0
19.08.2019 15:00:00 20,5 14,2 24 13 42 23 ZW 1013,1 25 0,0
19.08.2019 14:00:00 19,7 14,7 27 15 44 24 ZW 1012,6 29 0,0
19.08.2019 13:00:00 18,8 15,1 24 13 37 20 ZZW 1012,1 20 0,0
19.08.2019 12:00:00 18,9 15,4 21 12 32 17 ZZW 1011,8 29 0,0
19.08.2019 11:00:00 19,2 15,5 23 12 35 19 ZZW 1011,5 20 0,0
19.08.2019 10:00:00 19,9 15,3 17 9 29 16 ZW 1011,2 24 0,0
19.08.2019 09:00:00 18,0 15,6 13 7 28 15 ZZW 1010,9 25 0,2
19.08.2019 08:00:00 16,4 15,3 6 3 11 6 ZW 1010,7 20 0,0
19.08.2019 07:00:00 14,2 13,9 5 3 8 5 WZW 1010,3 11 0,0
19.08.2019 06:00:00 12,9 12,6 4 2 8 4 W 1009,5 10 0,0
19.08.2019 05:00:00 13,0 12,7 6 4 10 5 WZW 1009,4 8 0,0
19.08.2019 04:00:00 12,8 12,3 7 4 12 7 WZW 1008,3 8 0,0
19.08.2019 03:00:00 13,7 13,1 8 4 14 7 W 1007,5 13 0,0
19.08.2019 02:00:00 13,6 13,1 5 3 11 6 W 1007,2 12 0,0
19.08.2019 01:00:00 13,6 12,8 8 4 19 11 WZW 1006,7 21 0,0
19.08.2019 00:00:00 14,7 13,7 10 5 17 9 W 1005,7 31 0,0
18.08.2019 23:00:00 15,6 14,5 10 5 27 14 W 1004,9 36 0,0
18.08.2019 22:00:00 17,4 16,3 18 10 29 16 WZW 1004,0 43 0,0
18.08.2019 21:00:00 17,2 16,6 9 5 16 9 ZW 1003,6 50 0,0
18.08.2019 20:00:00 17,8 17,3 16 9 26 14 ZW 1003,6 14 3,7
18.08.2019 19:00:00 17,0 16,5 3 2 7 4 WZW 1003,7 4,5 0,1
18.08.2019 18:00:00 16,7 16,2 2 1 16 9 WZW 1004,1 7 2,5
18.08.2019 17:00:00 17,5 17,2 5 3 11 6 ZW 1004,5 3,0 0,8
18.08.2019 16:00:00 17,8 17,2 9 5 14 7 Z 1004,9 8 0,0
18.08.2019 15:00:00 17,9 17,3 11 6 16 8 Z 1005,1 5 0,0
18.08.2019 14:00:00 18,2 17,0 11 6 15 8 Z 1005,3 10 0,0
18.08.2019 13:00:00 18,2 16,9 9 5 15 8 ZZW 1005,6 - 0,0
18.08.2019 12:00:00 18,2 17,0 10 5 18 10 ZZW 1005,6 13 0,0
18.08.2019 11:00:00 18,0 16,9 14 7 23 13 ZZW 1005,7 14 0,0
18.08.2019 10:00:00 19,7 17,5 17 9 25 13 ZW 1005,5 29 0,0
18.08.2019 09:00:00 17,5 17,0 11 6 18 10 ZW 1005,9 15 0,0
18.08.2019 08:00:00 17,2 16,9 10 5 16 8 ZW 1005,6 12 0,0
18.08.2019 07:00:00 16,7 16,4 4 2 11 6 ZW 1005,6 6 0,0
18.08.2019 06:00:00 16,7 16,4 7 4 13 7 ZZW 1005,9 9 0,0
18.08.2019 05:00:00 16,6 16,3 7 4 18 10 ZW 1006,3 9 0,4
18.08.2019 04:00:00 16,8 16,6 10 5 14 7 ZZW 1007,0 4,4 0,9
18.08.2019 03:00:00 16,4 16,2 3 2 5 3 ZW 1006,8 2,4 0,0
18.08.2019 02:00:00 15,7 15,5 3 2 7 4 ZZW 1007,3 0,3 0,0
18.08.2019 01:00:00 15,9 15,4 3 1 10 6 Z 1007,4 2,8 0,0
18.08.2019 00:00:00 16,5 16,0 8 5 13 7 ZZW 1007,5 6 2,1
17.08.2019 23:00:00 16,5 15,9 9 5 12 6 ZW 1007,6 6 0,3
17.08.2019 22:00:00 16,2 15,4 4 2 12 7 ZW 1007,5 14 0,0
17.08.2019 21:00:00 16,0 15,0 6 4 10 6 ZW 1007,5 10 0,0
17.08.2019 20:00:00 17,4 15,7 9 5 16 9 ZW 1007,7 20 0,0
17.08.2019 19:00:00 18,1 15,7 14 8 24 13 Z 1007,7 24 0,0
17.08.2019 18:00:00 17,8 16,0 17 9 26 14 ZZW 1008,0 20 0,0
17.08.2019 17:00:00 18,1 16,4 13 7 23 12 Z 1008,0 16 0,3
17.08.2019 16:00:00 17,6 15,9 13 7 19 10 Z 1008,5 17 0,0
17.08.2019 15:00:00 18,6 15,5 11 6 29 16 Z 1008,5 31 0,0
17.08.2019 14:00:00 18,3 15,5 23 12 29 16 Z 1008,8 26 0,0
17.08.2019 13:00:00 18,0 15,3 15 8 26 14 ZZW 1009,4 28 0,0
17.08.2019 12:00:00 18,2 15,6 20 11 28 15 Z 1009,8 22 0,4
17.08.2019 11:00:00 17,9 15,9 18 10 35 19 Z 1010,1 21 0,1
17.08.2019 10:00:00 17,8 15,8 19 11 25 14 Z 1010,5 21 0,0
17.08.2019 09:00:00 18,0 16,0 15 8 27 15 Z 1010,6 29 0,0
17.08.2019 08:00:00 17,9 15,7 18 10 31 17 Z 1010,9 27 0,0
17.08.2019 07:00:00 17,8 15,6 22 12 32 17 Z 1011,1 40 0,0
17.08.2019 06:00:00 17,6 15,6 21 11 29 16 Z 1011,3 41 0,0
17.08.2019 05:00:00 17,0 13,7 16 8 21 11 Z 1011,8 40 0,0
17.08.2019 04:00:00 14,0 13,2 0 0 4 2 N 1012,1 41 0,0
17.08.2019 03:00:00 11,9 11,1 0 0 3 2 N 1013,0 28 0,0
17.08.2019 02:00:00 12,8 11,9 0 0 4 2 N 1013,3 20 0,0
17.08.2019 01:00:00 13,4 11,8 3 2 9 5 W 1013,4 27 0,0
17.08.2019 00:00:00 13,3 11,9 4 2 8 5 W 1013,5 28 0,0
16.08.2019 23:00:00 14,4 12,6 5 3 11 6 WZW 1013,7 34 0,0
16.08.2019 22:00:00 15,5 13,3 7 4 18 10 WZW 1013,5 46 0,0
16.08.2019 21:00:00 16,8 14,1 13 7 22 12 WZW 1013,2 42 0,0
16.08.2019 20:00:00 18,0 13,9 13 7 29 16 WZW 1012,9 43 0,0
16.08.2019 19:00:00 18,7 13,5 16 8 31 17 WZW 1012,7 50 0,0
16.08.2019 18:00:00 19,4 14,2 18 10 31 17 WZW 1012,5 45 0,0
16.08.2019 17:00:00 20,5 14,2 16 9 33 18 WZW 1012,2 32 0,0
16.08.2019 16:00:00 20,6 14,3 25 14 39 21 ZW 1012,1 40 0,0
16.08.2019 15:00:00 21,0 14,6 23 12 41 22 ZW 1012,0 36 0,0
16.08.2019 14:00:00 21,2 13,9 22 12 36 20 WZW 1012,0 28 0,0
16.08.2019 13:00:00 21,0 14,9 23 12 37 20 ZW 1011,9 34 0,0
16.08.2019 12:00:00 20,5 14,6 23 13 37 20 WZW 1011,7 27 0,0
16.08.2019 11:00:00 19,8 14,6 21 11 35 19 WZW 1011,5 26 0,0
16.08.2019 10:00:00 19,5 15,4 15 8 32 17 W 1011,1 34 0,0
16.08.2019 09:00:00 18,1 14,8 16 9 28 15 WZW 1010,9 30 0,0
16.08.2019 08:00:00 17,5 15,3 13 7 25 13 WZW 1010,5 25 0,0
16.08.2019 07:00:00 16,2 15,4 11 6 25 13 WZW 1010,1 19 1,3
16.08.2019 06:00:00 16,0 15,0 9 5 16 9 WZW 1009,6 15 0,0
16.08.2019 05:00:00 16,1 15,0 10 6 22 12 ZW 1009,4 17 0,0
16.08.2019 04:00:00 16,4 15,3 12 6 21 12 WZW 1009,2 26 0,0
16.08.2019 03:00:00 16,9 15,9 10 5 25 14 ZW 1009,0 24 0,0
16.08.2019 02:00:00 17,5 15,3 14 7 22 12 Z 1009,0 40 0,0
16.08.2019 01:00:00 16,9 14,7 18 10 27 15 Z 1009,3 32 0,3
16.08.2019 00:00:00 16,8 15,3 16 9 28 15 Z 1009,6 38 0,1
15.08.2019 23:00:00 15,9 15,4 22 12 31 17 ZZW 1009,9 3,4 4,8
15.08.2019 22:00:00 17,5 14,8 15 8 25 13 Z 1009,6 41 0,0
15.08.2019 21:00:00 16,4 14,8 14 8 40 22 Z 1009,7 30 0,3
15.08.2019 20:00:00 16,6 14,4 31 17 41 22 Z 1009,7 22 0,2
15.08.2019 19:00:00 17,4 12,1 11 6 23 12 Z 1009,7 32 0,0
15.08.2019 18:00:00 16,1 13,0 24 13 35 19 ZZW 1010,2 19 0,6
15.08.2019 17:00:00 17,0 11,7 22 12 42 23 Z 1010,2 28 0,0
15.08.2019 16:00:00 17,0 13,5 13 7 17 9 OZO 1010,6 46 0,3
15.08.2019 15:00:00 16,4 11,3 5 3 14 7 ZO 1011,0 26 0,3
15.08.2019 14:00:00 16,3 12,7 7 4 22 12 ZW 1011,5 13 0,4
15.08.2019 13:00:00 18,2 9,8 18 10 31 17 ZW 1011,6 41 0,0
15.08.2019 12:00:00 18,7 13,5 20 11 28 15 ZZW 1011,4 43 0,0
15.08.2019 11:00:00 19,6 13,5 19 10 27 15 Z 1011,6 39 0,0
15.08.2019 10:00:00 18,9 12,4 22 12 29 16 Z 1011,8 38 0,0
15.08.2019 09:00:00 18,1 13,2 21 11 27 15 Z 1012,1 48 0,0
15.08.2019 08:00:00 17,1 12,2 12 7 18 10 ZZW 1012,5 46 0,0
15.08.2019 07:00:00 14,8 11,9 4 2 7 4 ZW 1012,8 46 0,0
15.08.2019 06:00:00 13,2 10,6 2 1 6 3 ZW 1013,0 44 0,1
15.08.2019 05:00:00 14,1 9,9 3 2 7 4 W 1013,1 50 0,0
15.08.2019 04:00:00 13,2 9,8 4 2 6 3 W 1013,6 46 0,0
15.08.2019 03:00:00 12,5 9,5 4 2 9 5 W 1013,8 48 0,0
15.08.2019 02:00:00 12,0 9,0 5 3 9 5 W 1014,0 50 0,0
15.08.2019 01:00:00 12,0 9,2 6 3 8 5 W 1014,1 50 0,0
15.08.2019 00:00:00 12,1 9,1 4 2 9 5 W 1014,1 50 0,0
14.08.2019 23:00:00 12,4 9,4 6 3 10 5 W 1014,0 50 0,0
14.08.2019 22:00:00 12,8 9,8 6 3 14 7 W 1014,2 50 0,0
14.08.2019 21:00:00 15,0 9,8 11 6 23 12 WZW 1013,9 50 0,0
14.08.2019 20:00:00 16,4 9,6 14 8 26 14 WZW 1013,8 47 0,0
14.08.2019 19:00:00 17,8 8,9 13 7 34 18 W 1013,6 50 0,0
14.08.2019 18:00:00 18,7 8,9 18 10 40 22 WZW 1013,4 45 0,0
14.08.2019 17:00:00 19,0 8,6 26 14 44 24 WZW 1013,4 38 0,0
14.08.2019 16:00:00 18,2 10,8 26 14 37 20 ZW 1013,4 41 0,0
14.08.2019 15:00:00 17,3 9,7 25 13 37 20 ZW 1013,8 50 0,0
14.08.2019 14:00:00 18,3 8,8 19 10 30 16 ZW 1013,9 48 0,0
14.08.2019 13:00:00 15,3 11,5 11 6 29 16 ZW 1014,0 43 0,5
14.08.2019 12:00:00 15,5 13,2 15 8 24 13 ZW 1013,8 32 0,4
14.08.2019 11:00:00 18,0 9,6 19 11 27 14 ZW 1013,5 39 0,0
14.08.2019 10:00:00 17,3 8,4 13 7 23 13 WZW 1013,6 44 0,0
14.08.2019 09:00:00 16,4 10,3 11 6 21 12 W 1013,6 46 0,0
14.08.2019 08:00:00 14,8 10,4 6 4 12 6 W 1013,7 43 0,0
14.08.2019 07:00:00 11,9 9,8 3 2 10 6 W 1013,5 35 0,0
14.08.2019 06:00:00 10,2 8,6 6 3 11 6 W 1013,1 43 0,0
14.08.2019 05:00:00 10,2 8,6 7 4 11 6 W 1013,1 48 0,0
14.08.2019 04:00:00 10,3 8,7 7 4 10 6 W 1013,3 45 0,0
14.08.2019 03:00:00 10,0 8,6 7 4 10 6 W 1013,1 40 0,0
14.08.2019 02:00:00 10,4 9,2 5 3 10 5 W 1013,2 38 0,0
14.08.2019 01:00:00 11,5 9,9 7 4 13 7 W 1013,1 41 0,0
14.08.2019 00:00:00 11,6 9,7 7 4 13 7 W 1012,8 35 0,0
13.08.2019 23:00:00 12,0 9,9 7 4 12 7 W 1012,9 50 0,0
13.08.2019 22:00:00 12,6 10,1 6 3 13 7 W 1012,6 50 0,0

tt = temperatuur
td = dauwpunt
ff = windsnelheid
fx = windstoten
dd = windrichting
ppp = luchtdruk
vv = zicht
rr = neerslag

Weerstations in de omgeving